IBE165 SKBO-LEMD

Flight info

Callsign IBE165
Flight time N/A
Altitude 37000
Route LOBUL UP533 OVIVU/N0483F390 UP533 CITRS/M084F390 DCT 20N055W 23N050W 27N040W 32N030W/M084F410 3530N02000W DCT LUTAK/N0479F400 DCT RIVRO/N0474F410 DCT BARDI/N0471F400 M191 RIDAV
Aircraft A359/H-SDE2E3GHIJ3J4J5LM1ORWXY/LB1D1

Departure

Time 2026-05-01 09:56
Airport El Dorado International Airport (SKBO)

Arrival

Time N/A
Airport Adolfo Suárez Madrid–Barajas Airport (LEMD)
Time Latitude Longitude Altitude Speed Heading
2026-05-01 09:03 4.70030 -74.14389 8379 ft 0 kts 37°
2026-05-01 09:19 4.70030 -74.14390 8379 ft 0 kts 37°
2026-05-01 09:32 4.70029 -74.14390 8379 ft 0 kts 37°
2026-05-01 09:42 4.70011 -74.14404 8377 ft 4 kts 37°
2026-05-01 09:43 4.69979 -74.14437 8379 ft 4 kts 88°
2026-05-01 09:43 4.69984 -74.14462 8379 ft 4 kts 121°
2026-05-01 09:43 4.69999 -74.14483 8379 ft 4 kts 127°
2026-05-01 09:44 4.70031 -74.14526 8378 ft 4 kts 127°
2026-05-01 09:44 4.70048 -74.14548 8378 ft 4 kts 127°
2026-05-01 09:44 4.70064 -74.14570 8379 ft 4 kts 127°
2026-05-01 09:45 4.70080 -74.14591 8379 ft 4 kts 128°
2026-05-01 09:45 4.70105 -74.14634 8379 ft 4 kts 84°
2026-05-01 09:45 4.70096 -74.14658 8378 ft 4 kts 49°
2026-05-01 09:46 4.70076 -74.14677 8379 ft 4 kts 37°
2026-05-01 09:46 4.70056 -74.14692 8379 ft 4 kts 38°
2026-05-01 09:46 4.70035 -74.14709 8379 ft 4 kts 37°
2026-05-01 09:46 4.70013 -74.14725 8379 ft 3 kts 37°
2026-05-01 09:47 4.70010 -74.14727 8377 ft 0 kts 37°
2026-05-01 09:49 4.70013 -74.14725 8379 ft 3 kts 37°
2026-05-01 09:50 4.70048 -74.14699 8379 ft 8 kts 37°
2026-05-01 09:50 4.70105 -74.14656 8379 ft 12 kts 36°
2026-05-01 09:50 4.70182 -74.14599 8376 ft 15 kts 38°
2026-05-01 09:50 4.70275 -74.14527 8377 ft 18 kts 37°
2026-05-01 09:51 4.70385 -74.14444 8379 ft 21 kts 37°
2026-05-01 09:51 4.70480 -74.14408 8376 ft 13 kts 326°
2026-05-01 09:51 4.70548 -74.14490 8376 ft 17 kts 307°
2026-05-01 09:51 4.70627 -74.14595 8375 ft 20 kts 307°
2026-05-01 09:52 4.70719 -74.14717 8376 ft 23 kts 307°
2026-05-01 09:52 4.70824 -74.14855 8377 ft 26 kts 307°
2026-05-01 09:52 4.70939 -74.15007 8377 ft 29 kts 307°
2026-05-01 09:52 4.71062 -74.15172 8376 ft 30 kts 307°
2026-05-01 09:53 4.71174 -74.15321 8377 ft 17 kts 307°
2026-05-01 09:53 4.71263 -74.15358 8376 ft 14 kts 37°
2026-05-01 09:53 4.71277 -74.15340 8375 ft 0 kts 57°
2026-05-01 09:54 4.71279 -74.15338 8379 ft 1 kts 57°
2026-05-01 09:54 4.71290 -74.15315 8375 ft 6 kts 68°
2026-05-01 09:54 4.71305 -74.15252 8378 ft 12 kts 79°
2026-05-01 09:55 4.71311 -74.15172 8375 ft 13 kts 121°
2026-05-01 09:55 4.71285 -74.15136 8372 ft 0 kts 127°
2026-05-01 09:55 4.71250 -74.15091 8376 ft 31 kts 127°
2026-05-01 09:55 4.70985 -74.14739 8372 ft 94 kts 127°
2026-05-01 09:56 4.70475 -74.14064 8371 ft 148 kts 127°
2026-05-01 09:56 4.69760 -74.13110 8443 ft 188 kts 124°
2026-05-01 09:56 4.68992 -74.12059 9240 ft 184 kts 124°
2026-05-01 09:56 4.68261 -74.11068 9768 ft 174 kts 125°
2026-05-01 09:57 4.67553 -74.10046 9932 ft 182 kts 123°
2026-05-01 09:57 4.66770 -74.09009 10083 ft 192 kts 136°
2026-05-01 09:57 4.65585 -74.08400 10259 ft 199 kts 169°
2026-05-01 09:57 4.64186 -74.08579 10343 ft 212 kts 203°
2026-05-01 09:58 4.63038 -74.09546 10473 ft 224 kts 235°
2026-05-01 09:58 4.62514 -74.11045 10616 ft 235 kts 265°
2026-05-01 09:58 4.62760 -74.12708 10699 ft 250 kts 289°
2026-05-01 09:58 4.63281 -74.14391 10836 ft 263 kts 284°
2026-05-01 09:59 4.63665 -74.16221 11005 ft 273 kts 275°
2026-05-01 09:59 4.63635 -74.18125 11399 ft 272 kts 258°
2026-05-01 09:59 4.63093 -74.19950 11692 ft 278 kts 246°
2026-05-01 09:59 4.62402 -74.21790 11967 ft 284 kts 248°
2026-05-01 10:00 4.61713 -74.23652 12354 ft 286 kts 247°
2026-05-01 10:00 4.60999 -74.25528 12731 ft 289 kts 249°
2026-05-01 10:00 4.60644 -74.27527 13065 ft 295 kts 270°
2026-05-01 10:00 4.61047 -74.29569 13269 ft 305 kts 288°
2026-05-01 10:01 4.61793 -74.31598 13445 ft 316 kts 290°
2026-05-01 10:01 4.62585 -74.33665 13601 ft 326 kts 290°
2026-05-01 10:01 4.63400 -74.35822 13746 ft 337 kts 290°
2026-05-01 10:01 4.64232 -74.38058 13921 ft 347 kts 290°
2026-05-01 10:02 4.65080 -74.40353 14070 ft 356 kts 290°
2026-05-01 10:02 4.65951 -74.42718 14207 ft 365 kts 290°
2026-05-01 10:02 4.66837 -74.45133 14341 ft 374 kts 290°
2026-05-01 10:02 4.67746 -74.47609 14482 ft 382 kts 289°
2026-05-01 10:03 4.68671 -74.50132 14559 ft 390 kts 289°
2026-05-01 10:03 4.69616 -74.52712 14754 ft 396 kts 289°
2026-05-01 10:03 4.70569 -74.55317 15039 ft 400 kts 289°
2026-05-01 10:03 4.71530 -74.57942 15336 ft 402 kts 289°
2026-05-01 10:04 4.72484 -74.60548 15538 ft 404 kts 289°
2026-05-01 10:04 4.73452 -74.63198 15812 ft 405 kts 289°
2026-05-01 10:04 4.74423 -74.65861 15895 ft 406 kts 289°
2026-05-01 10:04 4.75437 -74.68512 15900 ft 407 kts 293°
2026-05-01 10:05 4.76865 -74.70969 16059 ft 411 kts 308°
2026-05-01 10:05 4.78862 -74.73012 16430 ft 410 kts 323°
2026-05-01 10:05 4.81313 -74.74486 16748 ft 410 kts 338°
2026-05-01 10:05 4.84010 -74.75269 17043 ft 409 kts 353°
2026-05-01 10:06 4.86832 -74.75347 17370 ft 407 kts
2026-05-01 10:06 4.89569 -74.74720 17653 ft 405 kts 23°
2026-05-01 10:06 4.92081 -74.73412 17955 ft 402 kts 37°
2026-05-01 10:06 4.94161 -74.71543 18231 ft 400 kts 52°
2026-05-01 10:07 4.95691 -74.69259 18480 ft 398 kts 65°
2026-05-01 10:07 4.96616 -74.66696 18719 ft 397 kts 79°
2026-05-01 10:07 4.96891 -74.63803 19020 ft 394 kts 93°
2026-05-01 10:07 4.96455 -74.61044 19234 ft 395 kts 107°
2026-05-01 10:08 4.93749 -74.56257 19709 ft 398 kts 129°
2026-05-01 10:08 4.91977 -74.54115 19960 ft 399 kts 130°
2026-05-01 10:08 4.90189 -74.51971 20242 ft 401 kts 129°
2026-05-01 10:09 4.88424 -74.49844 20533 ft 403 kts 129°
2026-05-01 10:09 4.86633 -74.47677 20780 ft 404 kts 129°
2026-05-01 10:09 4.84835 -74.45498 21047 ft 406 kts 129°
2026-05-01 10:09 4.83043 -74.43323 21335 ft 407 kts 129°
2026-05-01 10:10 4.81233 -74.41125 21608 ft 409 kts 129°
2026-05-01 10:10 4.79416 -74.38917 21874 ft 410 kts 129°
2026-05-01 10:10 4.75791 -74.34513 22429 ft 413 kts 129°
2026-05-01 10:11 4.73949 -74.32274 22674 ft 415 kts 129°
2026-05-01 10:11 4.72143 -74.30055 22912 ft 417 kts 128°
2026-05-01 10:11 4.70583 -74.27556 23141 ft 418 kts 115°
2026-05-01 10:11 4.69679 -74.24777 23378 ft 421 kts 102°
2026-05-01 10:12 4.69388 -74.21888 23580 ft 424 kts 91°
2026-05-01 10:12 4.69514 -74.19885 23707 ft 426 kts 84°
2026-05-01 10:12 4.71829 -74.13380 24095 ft 435 kts 60°
2026-05-01 10:13 4.73654 -74.10962 24344 ft 436 kts 49°
2026-05-01 10:13 4.75896 -74.08905 24627 ft 436 kts 39°
2026-05-01 10:13 4.78462 -74.07297 24919 ft 437 kts 28°
2026-05-01 10:14 4.83951 -74.04715 25099 ft 436 kts 32°
2026-05-01 10:14 4.86453 -74.02976 25174 ft 438 kts 41°
2026-05-01 10:14 4.88785 -74.01003 25258 ft 441 kts 43°
2026-05-01 10:14 4.91072 -73.98922 25329 ft 444 kts 45°
2026-05-01 10:15 4.93324 -73.96787 25411 ft 448 kts 45°
2026-05-01 10:15 4.95582 -73.94609 25508 ft 451 kts 46°
2026-05-01 10:15 4.97811 -73.92450 25663 ft 453 kts 45°
2026-05-01 10:15 5.00086 -73.90251 25794 ft 454 kts 45°
2026-05-01 10:16 5.02369 -73.88053 25945 ft 456 kts 45°
2026-05-01 10:16 5.04666 -73.85850 26094 ft 457 kts 45°
2026-05-01 10:16 5.09274 -73.81443 26413 ft 460 kts 45°
2026-05-01 10:17 5.11602 -73.79219 26590 ft 461 kts 45°
2026-05-01 10:17 5.16272 -73.74761 26814 ft 466 kts 45°
2026-05-01 10:17 5.18589 -73.72547 26985 ft 466 kts 45°
2026-05-01 10:18 5.23296 -73.68043 27286 ft 469 kts 45°
2026-05-01 10:18 5.25660 -73.65781 27425 ft 470 kts 45°
2026-05-01 10:18 5.28033 -73.63511 27580 ft 471 kts 45°
2026-05-01 10:19 5.30406 -73.61242 27754 ft 472 kts 45°
2026-05-01 10:19 5.32793 -73.58959 27904 ft 474 kts 45°
2026-05-01 10:19 5.35175 -73.56680 28050 ft 475 kts 45°
2026-05-01 10:20 5.39953 -73.52110 28346 ft 478 kts 45°
2026-05-01 10:20 5.42359 -73.49806 28464 ft 479 kts 45°
2026-05-01 10:20 5.44772 -73.47495 28622 ft 480 kts 45°
2026-05-01 10:20 5.47193 -73.45178 28842 ft 480 kts 45°
2026-05-01 10:21 5.49612 -73.42862 29069 ft 479 kts 45°
2026-05-01 10:21 5.54434 -73.38245 29524 ft 478 kts 45°
2026-05-01 10:21 5.56841 -73.35940 29765 ft 478 kts 45°
2026-05-01 10:22 5.61658 -73.31326 30232 ft 478 kts 45°
2026-05-01 10:22 5.66457 -73.26728 30645 ft 479 kts 44°
2026-05-01 10:23 5.68868 -73.24417 30825 ft 479 kts 44°
2026-05-01 10:23 5.73708 -73.19778 31105 ft 484 kts 44°
2026-05-01 10:23 5.76147 -73.17441 31245 ft 486 kts 44°
2026-05-01 10:24 5.81039 -73.12750 31673 ft 486 kts 43°
2026-05-01 10:24 5.85933 -73.08057 32081 ft 486 kts 43°
2026-05-01 10:25 5.90817 -73.03370 32515 ft 486 kts 43°
2026-05-01 10:25 5.95717 -72.98668 32882 ft 488 kts 43°
2026-05-01 10:26 5.98175 -72.96308 33024 ft 488 kts 43°
2026-05-01 10:26 6.00628 -72.93953 33205 ft 489 kts 42°
2026-05-01 10:26 6.04726 -72.90018 33516 ft 491 kts 42°
2026-05-01 10:27 6.10472 -72.84501 33926 ft 493 kts 42°
2026-05-01 10:27 6.15439 -72.79730 34233 ft 494 kts 41°
2026-05-01 10:28 6.17922 -72.77345 34399 ft 495 kts 41°
2026-05-01 10:28 6.22070 -72.73359 34665 ft 496 kts 42°
2026-05-01 10:28 6.24558 -72.70967 34817 ft 497 kts 42°
2026-05-01 10:29 6.29551 -72.66166 35146 ft 497 kts 42°
2026-05-01 10:29 6.32059 -72.63754 35308 ft 498 kts 42°
2026-05-01 10:30 6.37063 -72.58941 35631 ft 498 kts 42°
2026-05-01 10:30 6.42067 -72.54127 35974 ft 498 kts 42°
2026-05-01 10:31 6.47051 -72.49329 36308 ft 497 kts 42°
2026-05-01 10:31 6.52054 -72.44514 36653 ft 497 kts 42°
2026-05-01 10:32 6.57060 -72.39694 37019 ft 496 kts 43°
2026-05-01 10:32 6.59555 -72.37291 37077 ft 499 kts 43°
2026-05-01 10:33 6.69726 -72.27498 37068 ft 511 kts 43°
2026-05-01 10:34 6.77404 -72.20093 37042 ft 511 kts 43°
2026-05-01 10:34 6.82545 -72.15134 37000 ft 511 kts 43°
2026-05-01 10:35 6.90224 -72.07726 36948 ft 511 kts 43°
2026-05-01 10:35 6.95355 -72.02772 36928 ft 511 kts 43°
2026-05-01 10:36 7.03060 -71.95319 36913 ft 511 kts 44°
2026-05-01 10:37 7.07934 -71.90107 36935 ft 512 kts 47°
2026-05-01 10:37 7.15120 -71.82107 36932 ft 512 kts 46°
2026-05-01 10:38 7.19914 -71.76860 36932 ft 512 kts 46°
2026-05-01 10:38 7.24765 -71.71588 36941 ft 513 kts 46°
2026-05-01 10:39 7.29632 -71.66305 36913 ft 514 kts 46°
2026-05-01 10:39 7.34499 -71.61016 36912 ft 514 kts 46°
2026-05-01 10:40 7.39367 -71.55722 36912 ft 514 kts 46°
2026-05-01 10:40 7.44231 -71.50430 36929 ft 515 kts 45°
2026-05-01 10:41 7.49103 -71.45127 36923 ft 515 kts 45°
2026-05-01 10:42 7.56412 -71.37169 36912 ft 515 kts 45°
2026-05-01 10:42 7.61244 -71.31906 36911 ft 516 kts 45°
2026-05-01 10:43 7.66129 -71.26583 36918 ft 516 kts 45°
2026-05-01 10:43 7.70999 -71.21275 36935 ft 515 kts 45°
2026-05-01 10:44 7.75872 -71.15962 36933 ft 515 kts 45°
2026-05-01 10:44 7.80747 -71.10643 36922 ft 516 kts 45°
2026-05-01 10:45 7.85615 -71.05331 36916 ft 516 kts 45°
2026-05-01 10:45 7.90452 -71.00051 36931 ft 516 kts 46°
2026-05-01 10:46 7.95324 -70.94730 36930 ft 516 kts 46°
2026-05-01 10:46 8.00203 -70.89400 36927 ft 517 kts 46°
2026-05-01 10:47 8.05076 -70.84074 36934 ft 516 kts 45°
2026-05-01 10:47 8.09947 -70.78748 36951 ft 516 kts 45°
2026-05-01 10:48 8.14820 -70.73419 36927 ft 516 kts 45°
2026-05-01 10:48 8.19693 -70.68087 36926 ft 516 kts 45°
2026-05-01 10:49 8.24538 -70.62783 36925 ft 517 kts 45°
2026-05-01 10:49 8.29434 -70.57424 36909 ft 519 kts 45°
2026-05-01 10:50 8.34338 -70.52052 36938 ft 519 kts 45°
2026-05-01 10:50 8.39235 -70.46685 36920 ft 520 kts 45°
2026-05-01 10:51 8.44150 -70.41296 36915 ft 521 kts 45°
2026-05-01 10:51 8.48303 -70.36742 36934 ft 520 kts 45°
2026-05-01 10:52 8.53211 -70.31357 36903 ft 520 kts 45°
2026-05-01 10:52 8.58129 -70.25959 36916 ft 521 kts 45°
2026-05-01 10:53 8.63021 -70.20586 36930 ft 520 kts 46°
2026-05-01 10:53 8.67841 -70.15124 36917 ft 521 kts 47°
2026-05-01 10:54 8.72627 -70.09616 36934 ft 522 kts 47°
2026-05-01 10:54 8.77411 -70.04130 36898 ft 522 kts 47°
2026-05-01 10:55 8.82225 -69.98632 36901 ft 522 kts 46°
2026-05-01 10:55 8.87038 -69.93141 36934 ft 522 kts 46°
2026-05-01 10:56 8.91842 -69.87657 36902 ft 521 kts 47°
2026-05-01 10:56 8.96611 -69.82209 36922 ft 519 kts 46°
2026-05-01 10:57 9.01404 -69.76731 36904 ft 519 kts 46°
2026-05-01 10:57 9.06182 -69.71269 36924 ft 519 kts 47°
2026-05-01 10:58 9.10968 -69.65794 36928 ft 519 kts 47°
2026-05-01 10:58 9.15753 -69.60319 36912 ft 519 kts 47°
2026-05-01 10:59 9.20535 -69.54844 36911 ft 519 kts 47°
2026-05-01 10:59 9.25294 -69.49393 36920 ft 518 kts 46°
2026-05-01 11:00 9.30057 -69.43935 36939 ft 517 kts 46°
2026-05-01 11:00 9.34822 -69.38473 36912 ft 517 kts 46°
2026-05-01 11:01 9.39588 -69.33007 36920 ft 517 kts 46°
2026-05-01 11:01 9.44352 -69.27541 36924 ft 517 kts 46°
2026-05-01 11:02 9.49113 -69.22076 36943 ft 517 kts 46°
2026-05-01 11:02 9.53868 -69.16615 36922 ft 517 kts 46°
2026-05-01 11:03 9.58625 -69.11150 36913 ft 514 kts 47°
2026-05-01 11:03 9.63324 -69.05748 36920 ft 512 kts 47°
2026-05-01 11:04 9.68041 -69.00329 36939 ft 512 kts 47°
2026-05-01 11:04 9.72756 -68.94911 36942 ft 512 kts 47°
2026-05-01 11:05 9.77469 -68.89493 36930 ft 512 kts 47°
2026-05-01 11:05 9.82161 -68.84097 36937 ft 513 kts 47°
2026-05-01 11:06 9.86890 -68.78656 36936 ft 514 kts 47°
2026-05-01 11:06 9.91628 -68.73201 36946 ft 518 kts 46°
2026-05-01 11:07 9.98799 -68.64941 36952 ft 519 kts 46°
2026-05-01 11:07 10.03543 -68.59474 36960 ft 520 kts 46°
2026-05-01 11:08 10.08328 -68.53976 36955 ft 519 kts 46°
2026-05-01 11:09 10.15502 -68.45726 36955 ft 519 kts 46°
2026-05-01 11:09 10.20283 -68.40226 36955 ft 520 kts 46°
2026-05-01 11:10 10.27465 -68.31956 36935 ft 519 kts 46°
2026-05-01 11:10 10.32221 -68.26476 36957 ft 520 kts 46°
2026-05-01 11:11 10.37006 -68.20960 36959 ft 519 kts 46°
2026-05-01 11:11 10.41752 -68.15486 36958 ft 519 kts 46°
2026-05-01 11:12 10.46527 -68.09978 36958 ft 519 kts 46°
2026-05-01 11:12 10.51308 -68.04474 36933 ft 519 kts 46°
2026-05-01 11:13 10.56092 -67.98992 36943 ft 519 kts 46°
2026-05-01 11:13 10.60886 -67.93495 36933 ft 519 kts 46°
2026-05-01 11:14 10.65644 -67.88035 36920 ft 519 kts 46°
2026-05-01 11:14 10.69604 -67.83417 36921 ft 519 kts 47°
2026-05-01 11:15 10.74297 -67.77810 36927 ft 519 kts 47°
2026-05-01 11:15 10.78974 -67.72222 36931 ft 519 kts 47°
2026-05-01 11:16 10.83664 -67.66641 36916 ft 519 kts 47°
2026-05-01 11:16 10.88379 -67.61045 36915 ft 520 kts 46°
2026-05-01 11:17 10.93087 -67.55450 36923 ft 520 kts 47°
2026-05-01 11:17 10.97753 -67.49895 36916 ft 519 kts 47°
2026-05-01 11:18 11.02414 -67.44271 36917 ft 519 kts 48°
2026-05-01 11:18 11.06955 -67.38543 36934 ft 519 kts 49°
2026-05-01 11:19 11.11496 -67.32796 36916 ft 519 kts 48°
2026-05-01 11:19 11.16020 -67.27109 36925 ft 520 kts 48°
2026-05-01 11:20 11.20586 -67.21387 36930 ft 520 kts 48°
2026-05-01 11:20 11.25150 -67.15669 36924 ft 520 kts 48°
2026-05-01 11:21 11.29703 -67.09949 36933 ft 520 kts 48°
2026-05-01 11:21 11.34263 -67.04215 36930 ft 520 kts 48°
2026-05-01 11:22 11.38810 -66.98495 36932 ft 520 kts 48°
2026-05-01 11:22 11.43362 -66.92767 36932 ft 520 kts 48°
2026-05-01 11:23 11.47925 -66.87041 36936 ft 521 kts 48°
2026-05-01 11:23 11.52482 -66.81304 36938 ft 521 kts 48°
2026-05-01 11:24 11.57018 -66.75589 36938 ft 521 kts 48°
2026-05-01 11:25 11.63867 -66.66959 36942 ft 521 kts 48°
2026-05-01 11:25 11.70694 -66.58323 36941 ft 521 kts 48°
2026-05-01 11:26 11.77494 -66.49734 36944 ft 521 kts 48°
2026-05-01 11:27 11.82061 -66.43970 36945 ft 522 kts 48°
2026-05-01 11:27 11.86621 -66.38206 36943 ft 522 kts 48°
2026-05-01 11:28 11.91204 -66.32409 36943 ft 522 kts 48°
2026-05-01 11:28 11.95762 -66.26640 36944 ft 522 kts 48°
2026-05-01 11:29 12.02587 -66.17995 36950 ft 522 kts 49°
2026-05-01 11:30 12.09430 -66.09320 36947 ft 523 kts 48°
2026-05-01 11:30 12.14007 -66.03514 36949 ft 524 kts 48°
2026-05-01 11:31 12.18569 -65.97722 36950 ft 524 kts 48°
2026-05-01 11:31 12.23117 -65.91946 36948 ft 523 kts 48°
2026-05-01 11:32 12.27678 -65.86148 36952 ft 522 kts 48°
2026-05-01 11:32 12.32235 -65.80351 36953 ft 522 kts 48°
2026-05-01 11:33 12.36790 -65.74555 36955 ft 523 kts 48°
2026-05-01 11:33 12.41346 -65.68754 36954 ft 523 kts 48°
2026-05-01 11:34 12.45908 -65.62942 36954 ft 523 kts 48°
2026-05-01 11:34 12.50464 -65.57133 36959 ft 522 kts 48°
2026-05-01 11:35 12.54981 -65.51370 36956 ft 522 kts 48°
2026-05-01 11:35 12.59525 -65.45569 36957 ft 522 kts 48°
2026-05-01 11:36 12.64064 -65.39772 36956 ft 522 kts 48°
2026-05-01 11:36 12.68601 -65.33973 36957 ft 522 kts 48°
2026-05-01 11:37 12.73147 -65.28160 36958 ft 522 kts 48°
2026-05-01 11:37 12.77661 -65.22382 36962 ft 522 kts 48°
2026-05-01 11:38 12.82200 -65.16569 36964 ft 522 kts 48°
2026-05-01 11:38 12.86740 -65.10752 36967 ft 522 kts 48°
2026-05-01 11:39 12.91275 -65.04937 36961 ft 522 kts 48°
2026-05-01 11:39 12.95808 -64.99121 36969 ft 522 kts 48°
2026-05-01 11:40 13.00311 -64.93340 36970 ft 522 kts 48°
2026-05-01 11:40 13.04840 -64.87522 36969 ft 522 kts 49°
2026-05-01 11:41 13.09370 -64.81697 36972 ft 521 kts 49°
2026-05-01 11:41 13.13893 -64.75879 36970 ft 521 kts 49°
2026-05-01 11:42 13.18409 -64.70067 36970 ft 521 kts 49°
2026-05-01 11:42 13.22938 -64.64240 36970 ft 521 kts 49°
2026-05-01 11:43 13.27440 -64.58431 36976 ft 521 kts 49°
2026-05-01 11:43 13.31952 -64.52603 36973 ft 521 kts 49°
2026-05-01 11:44 13.38737 -64.43838 36975 ft 522 kts 49°
2026-05-01 11:44 13.43236 -64.38026 36973 ft 522 kts 49°
2026-05-01 11:45 13.47751 -64.32193 36975 ft 521 kts 49°
2026-05-01 11:45 13.52251 -64.26364 36977 ft 520 kts 49°
2026-05-01 11:46 13.56752 -64.20535 36979 ft 521 kts 49°
2026-05-01 11:46 13.61246 -64.14712 36975 ft 521 kts 49°
2026-05-01 11:47 13.65865 -64.08948 36978 ft 519 kts 45°
2026-05-01 11:47 13.70773 -64.03491 36976 ft 518 kts 44°
2026-05-01 11:48 13.75688 -63.98065 36978 ft 518 kts 44°
2026-05-01 11:48 13.80523 -63.92626 36985 ft 518 kts 45°
2026-05-01 11:49 13.85368 -63.87121 36984 ft 519 kts 45°
2026-05-01 11:49 13.90205 -63.81610 36981 ft 519 kts 45°
2026-05-01 11:50 13.95038 -63.76105 36986 ft 519 kts 45°
2026-05-01 11:50 13.99890 -63.70576 36983 ft 519 kts 45°
2026-05-01 11:51 14.03422 -63.66550 36985 ft 519 kts 45°
2026-05-01 11:51 14.08268 -63.61024 36998 ft 519 kts 45°
2026-05-01 11:52 14.13117 -63.55490 36989 ft 519 kts 45°
2026-05-01 11:52 14.17935 -63.49986 36988 ft 519 kts 45°
2026-05-01 11:53 14.22776 -63.44454 36994 ft 519 kts 45°
2026-05-01 11:53 14.27615 -63.38919 36993 ft 520 kts 45°
2026-05-01 11:54 14.32466 -63.33368 36990 ft 521 kts 45°
2026-05-01 11:54 14.37322 -63.27805 36998 ft 521 kts 45°
2026-05-01 11:55 14.42152 -63.22270 36994 ft 521 kts 45°
2026-05-01 11:55 14.47017 -63.16690 36994 ft 521 kts 45°
2026-05-01 11:56 14.51872 -63.11118 36998 ft 521 kts 45°
2026-05-01 11:56 14.56687 -63.05587 36998 ft 521 kts 45°
2026-05-01 11:57 14.60733 -63.00937 36998 ft 521 kts 45°
2026-05-01 11:57 14.66409 -62.94408 37003 ft 522 kts 44°
2026-05-01 11:58 14.71230 -62.88860 37002 ft 522 kts 44°
2026-05-01 11:59 14.78512 -62.80471 37001 ft 522 kts 44°
2026-05-01 11:59 14.83363 -62.74878 37004 ft 522 kts 45°
2026-05-01 12:00 14.90613 -62.66510 37006 ft 522 kts 45°
2026-05-01 12:01 14.97037 -62.59088 37007 ft 523 kts 44°
2026-05-01 12:01 15.02710 -62.52528 37003 ft 523 kts 44°
2026-05-01 12:02 15.06767 -62.47833 37006 ft 522 kts 45°
2026-05-01 12:02 15.11613 -62.42221 37006 ft 522 kts 45°
2026-05-01 12:03 15.16436 -62.36632 37005 ft 522 kts 45°
2026-05-01 12:03 15.21250 -62.31049 37004 ft 522 kts 44°
2026-05-01 12:04 15.26106 -62.25415 37005 ft 524 kts 45°
2026-05-01 12:04 15.30976 -62.19758 37009 ft 524 kts 44°
2026-05-01 12:05 15.35802 -62.14147 37011 ft 524 kts 44°
2026-05-01 12:05 15.43093 -62.05664 37012 ft 524 kts 45°
2026-05-01 12:06 15.47944 -62.00015 37014 ft 524 kts 44°
2026-05-01 12:06 15.52793 -61.94364 37004 ft 524 kts 44°
2026-05-01 12:07 15.57607 -61.88749 37008 ft 524 kts 44°
2026-05-01 12:07 15.62467 -61.83076 37010 ft 524 kts 44°
2026-05-01 12:08 15.67292 -61.77439 37014 ft 524 kts 44°
2026-05-01 12:08 15.72140 -61.71773 37012 ft 524 kts 44°
2026-05-01 12:09 15.76986 -61.66102 37024 ft 524 kts 44°
2026-05-01 12:09 15.81801 -61.60465 37023 ft 524 kts 44°
2026-05-01 12:10 15.89066 -61.51950 37020 ft 524 kts 44°
2026-05-01 12:11 15.96308 -61.43455 37017 ft 524 kts 44°
2026-05-01 12:11 16.01139 -61.37778 37019 ft 524 kts 44°
2026-05-01 12:12 16.05977 -61.32089 37010 ft 524 kts 44°
2026-05-01 12:12 16.10776 -61.26441 37012 ft 524 kts 44°
2026-05-01 12:13 16.15615 -61.20744 37011 ft 524 kts 44°
2026-05-01 12:13 16.20447 -61.15048 37013 ft 524 kts 44°
2026-05-01 12:14 16.25271 -61.09359 37020 ft 524 kts 44°
2026-05-01 12:14 16.30060 -61.03706 37019 ft 524 kts 45°
2026-05-01 12:15 16.34895 -60.97994 37013 ft 524 kts 45°
2026-05-01 12:15 16.39716 -60.92294 37020 ft 524 kts 45°
2026-05-01 12:16 16.44539 -60.86587 37024 ft 524 kts 45°
2026-05-01 12:16 16.49343 -60.80898 37023 ft 524 kts 45°
2026-05-01 12:17 16.54156 -60.75194 37027 ft 524 kts 44°
2026-05-01 12:17 16.58982 -60.69470 37021 ft 525 kts 44°
2026-05-01 12:18 16.63786 -60.63768 37018 ft 525 kts 44°
2026-05-01 12:18 16.68611 -60.58031 37021 ft 525 kts 44°
2026-05-01 12:19 16.73436 -60.52294 37028 ft 525 kts 44°
2026-05-01 12:19 16.78244 -60.46573 37026 ft 525 kts 44°
2026-05-01 12:20 16.83069 -60.40828 37025 ft 526 kts 44°
2026-05-01 12:20 16.87880 -60.35092 37027 ft 526 kts 45°
2026-05-01 12:21 16.92709 -60.29331 37026 ft 526 kts 45°
2026-05-01 12:21 16.97534 -60.23568 37028 ft 526 kts 45°
2026-05-01 12:22 17.02328 -60.17839 37025 ft 526 kts 45°
2026-05-01 12:22 17.07162 -60.12055 37031 ft 527 kts 44°
2026-05-01 12:23 17.11977 -60.06291 37029 ft 527 kts 44°
2026-05-01 12:23 17.16811 -60.00499 37031 ft 527 kts 44°
2026-05-01 12:24 17.21610 -59.94744 37031 ft 527 kts 44°
2026-05-01 12:24 17.26404 -59.88989 37030 ft 527 kts 44°
2026-05-01 12:25 17.33644 -59.80288 37034 ft 527 kts 44°
2026-05-01 12:26 17.38438 -59.74522 37034 ft 527 kts 44°
2026-05-01 12:26 17.45673 -59.65809 37034 ft 527 kts 44°
2026-05-01 12:27 17.52867 -59.57135 37036 ft 527 kts 44°
2026-05-01 12:28 17.60114 -59.48385 37040 ft 529 kts 44°
2026-05-01 12:29 17.67335 -59.39655 37039 ft 529 kts 44°
2026-05-01 12:29 17.74544 -59.30926 37040 ft 529 kts 44°
2026-05-01 12:30 17.81800 -59.22130 37044 ft 531 kts 44°
2026-05-01 12:31 17.86627 -59.16275 37039 ft 532 kts 44°
2026-05-01 12:31 17.91454 -59.10411 37045 ft 532 kts 44°
2026-05-01 12:32 17.96303 -59.04515 37044 ft 532 kts 44°
2026-05-01 12:32 18.00798 -58.98283 37051 ft 538 kts 56°
2026-05-01 12:32 18.02678 -58.94884 37045 ft 539 kts 57°
2026-05-01 12:33 18.06272 -58.87995 37048 ft 542 kts 58°
2026-05-01 12:33 18.09845 -58.80988 37046 ft 543 kts 58°
2026-05-01 12:34 18.13428 -58.73981 37050 ft 543 kts 58°
2026-05-01 12:34 18.16995 -58.67031 37047 ft 543 kts 58°
2026-05-01 12:35 18.20599 -58.60017 37051 ft 543 kts 58°
2026-05-01 12:35 18.24178 -58.53044 37050 ft 543 kts 58°
2026-05-01 12:36 18.27779 -58.46020 37048 ft 545 kts 58°
2026-05-01 12:36 18.31356 -58.39031 37051 ft 545 kts 58°
2026-05-01 12:37 18.34953 -58.31997 37054 ft 544 kts 58°
2026-05-01 12:37 18.38543 -58.24968 37053 ft 544 kts 58°
2026-05-01 12:38 18.42114 -58.17967 37054 ft 544 kts 58°
2026-05-01 12:38 18.45705 -58.10920 37053 ft 544 kts 58°
2026-05-01 12:39 18.49267 -58.03923 37053 ft 544 kts 58°
2026-05-01 12:39 18.52850 -57.96876 37056 ft 544 kts 58°
2026-05-01 12:40 18.56416 -57.89853 37053 ft 544 kts 58°
2026-05-01 12:40 18.59987 -57.82814 37054 ft 543 kts 58°
2026-05-01 12:41 18.63537 -57.75806 37058 ft 543 kts 58°
2026-05-01 12:41 18.67100 -57.68767 37066 ft 543 kts 58°
2026-05-01 12:42 18.70671 -57.61705 37057 ft 546 kts 58°
2026-05-01 12:42 18.74229 -57.54658 37056 ft 546 kts 58°
2026-05-01 12:43 18.77804 -57.47570 37058 ft 546 kts 58°
2026-05-01 12:43 18.81352 -57.40525 37059 ft 546 kts 58°
2026-05-01 12:44 18.84925 -57.33425 37058 ft 546 kts 58°
2026-05-01 12:45 18.92031 -57.19278 37062 ft 548 kts 58°
2026-05-01 12:45 18.94998 -57.13363 37061 ft 548 kts 58°
2026-05-01 12:46 18.98576 -57.06217 37061 ft 548 kts 58°
2026-05-01 12:46 19.02119 -56.99135 37061 ft 547 kts 58°
2026-05-01 12:47 19.05669 -56.92031 37061 ft 547 kts 58°
2026-05-01 12:47 19.09230 -56.84895 37076 ft 547 kts 58°
2026-05-01 12:48 19.12777 -56.77781 37059 ft 549 kts 58°
2026-05-01 12:48 19.16351 -56.70603 37061 ft 549 kts 58°
2026-05-01 12:49 19.19887 -56.63492 37061 ft 549 kts 58°
2026-05-01 12:49 19.23454 -56.56311 37062 ft 549 kts 58°
2026-05-01 12:50 19.26992 -56.49179 37064 ft 549 kts 58°
2026-05-01 12:50 19.30537 -56.42024 37065 ft 549 kts 58°
2026-05-01 12:51 19.34091 -56.34843 37064 ft 551 kts 58°
2026-05-01 12:52 19.39436 -56.24025 37067 ft 550 kts 58°
2026-05-01 12:52 19.44749 -56.13253 37066 ft 550 kts 58°
2026-05-01 12:53 19.50046 -56.02494 37070 ft 551 kts 58°
2026-05-01 12:54 19.53589 -55.95288 37067 ft 552 kts 58°
2026-05-01 12:54 19.58921 -55.84422 37070 ft 553 kts 58°
2026-05-01 12:55 19.64230 -55.73584 37069 ft 552 kts 58°
2026-05-01 12:56 19.67769 -55.66346 37072 ft 552 kts 58°
2026-05-01 12:56 19.71291 -55.59138 37072 ft 553 kts 58°
2026-05-01 12:57 19.74842 -55.51860 37057 ft 553 kts 58°
2026-05-01 12:57 19.80137 -55.40988 37069 ft 553 kts 58°
2026-05-01 12:58 19.83652 -55.33760 37070 ft 553 kts 59°
2026-05-01 12:59 19.88925 -55.22900 37080 ft 553 kts 59°
2026-05-01 12:59 19.94208 -55.11997 37078 ft 552 kts 59°
2026-05-01 13:00 19.99476 -55.01161 37056 ft 551 kts 56°
2026-05-01 13:01 20.05648 -54.90938 37073 ft 547 kts 51°
2026-05-01 13:02 20.11996 -54.80835 37073 ft 547 kts 51°
2026-05-01 13:07 20.56107 -54.09849 37307 ft 548 kts 52°
2026-05-01 13:07 20.58183 -54.06488 37400 ft 550 kts 52°
2026-05-01 13:07 20.60306 -54.03048 37558 ft 551 kts 52°
2026-05-01 13:08 20.62388 -53.99671 37741 ft 551 kts 52°
2026-05-01 13:08 20.64503 -53.96238 37879 ft 552 kts 52°
2026-05-01 13:08 20.66607 -53.92819 38085 ft 552 kts 52°
2026-05-01 13:08 20.68722 -53.89382 38367 ft 549 kts 52°
2026-05-01 13:09 20.70817 -53.85973 38573 ft 549 kts 52°
2026-05-01 13:09 20.72897 -53.82587 38722 ft 549 kts 52°
2026-05-01 13:09 20.74998 -53.79168 38853 ft 549 kts 52°
2026-05-01 13:09 20.77096 -53.75750 38987 ft 548 kts 52°
2026-05-01 13:10 20.79169 -53.72373 39063 ft 549 kts 52°
2026-05-01 13:10 20.83385 -53.65498 39075 ft 551 kts 52°
2026-05-01 13:11 20.87576 -53.58652 39086 ft 550 kts 52°
2026-05-01 13:11 20.91735 -53.51847 39074 ft 547 kts 52°
2026-05-01 13:12 20.95904 -53.45022 39074 ft 546 kts 52°
2026-05-01 13:12 21.00056 -53.38219 39075 ft 546 kts 52°
2026-05-01 13:13 21.04192 -53.31431 39075 ft 546 kts 52°
2026-05-01 13:13 21.08339 -53.24617 39066 ft 545 kts 52°
2026-05-01 13:14 21.12477 -53.17808 39075 ft 545 kts 52°
2026-05-01 13:14 21.16629 -53.10971 39078 ft 545 kts 52°
2026-05-01 13:15 21.20760 -53.04158 39074 ft 545 kts 52°
2026-05-01 13:15 21.24882 -52.97352 39083 ft 545 kts 52°
2026-05-01 13:16 21.28995 -52.90553 39077 ft 544 kts 52°
2026-05-01 13:16 21.33132 -52.83706 39078 ft 544 kts 53°
2026-05-01 13:17 21.41338 -52.70097 39078 ft 545 kts 52°
2026-05-01 13:18 21.47497 -52.59862 39075 ft 545 kts 53°
2026-05-01 13:18 21.51612 -52.53014 39075 ft 544 kts 53°
2026-05-01 13:19 21.55720 -52.46167 39078 ft 545 kts 53°
2026-05-01 13:20 21.61869 -52.35905 39071 ft 545 kts 53°
2026-05-01 13:20 21.65983 -52.29027 39088 ft 546 kts 53°
2026-05-01 13:21 21.72124 -52.18746 39081 ft 546 kts 53°
2026-05-01 13:21 21.76239 -52.11845 39083 ft 546 kts 53°
2026-05-01 13:22 21.80325 -52.04983 39085 ft 547 kts 53°
2026-05-01 13:22 21.84422 -51.98096 39079 ft 548 kts 53°
2026-05-01 13:23 21.88540 -51.91164 39073 ft 548 kts 53°
2026-05-01 13:23 21.92646 -51.84243 39075 ft 548 kts 53°
2026-05-01 13:24 21.96737 -51.77338 39093 ft 548 kts 53°
2026-05-01 13:25 22.02901 -51.66919 39075 ft 550 kts 53°
2026-05-01 13:25 22.07004 -51.59973 39073 ft 550 kts 53°
2026-05-01 13:26 22.11092 -51.53041 39079 ft 550 kts 53°
2026-05-01 13:26 22.15210 -51.46049 39086 ft 550 kts 53°
2026-05-01 13:27 22.19307 -51.39087 39072 ft 550 kts 53°
2026-05-01 13:27 22.25443 -51.28641 39071 ft 551 kts 53°
2026-05-01 13:28 22.31586 -51.18162 39073 ft 551 kts 53°
2026-05-01 13:29 22.39747 -51.04206 39070 ft 551 kts 53°
2026-05-01 13:31 22.51317 -50.84360 39072 ft 550 kts 53°
2026-05-01 13:32 22.61505 -50.66823 39075 ft 550 kts 53°
2026-05-01 13:33 22.71670 -50.49264 39070 ft 550 kts 53°
2026-05-01 13:34 22.79782 -50.35213 39070 ft 551 kts 53°
2026-05-01 13:35 22.85866 -50.24647 39068 ft 550 kts 53°
2026-05-01 13:36 22.91934 -50.14087 39070 ft 550 kts 53°
2026-05-01 13:36 22.97997 -50.03517 39074 ft 551 kts 53°
2026-05-01 13:37 23.01709 -49.96181 39063 ft 553 kts 59°
2026-05-01 13:37 23.05104 -49.88657 39067 ft 554 kts 60°
2026-05-01 13:38 23.10099 -49.77369 39069 ft 553 kts 60°
2026-05-01 13:39 23.13442 -49.69821 39087 ft 554 kts 60°
2026-05-01 13:39 23.16777 -49.62294 39068 ft 553 kts 60°
2026-05-01 13:40 23.20110 -49.54767 39064 ft 553 kts 60°
2026-05-01 13:40 23.23441 -49.47232 39066 ft 553 kts 60°
2026-05-01 13:41 23.26765 -49.39699 39063 ft 553 kts 60°
2026-05-01 13:41 23.30081 -49.32172 39069 ft 552 kts 60°
2026-05-01 13:42 23.33385 -49.24658 39061 ft 552 kts 60°
2026-05-01 13:42 23.36713 -49.17083 39060 ft 552 kts 60°
2026-05-01 13:43 23.40003 -49.09579 39062 ft 552 kts 60°
2026-05-01 13:43 23.43300 -49.02047 39068 ft 552 kts 60°
2026-05-01 13:44 23.46617 -48.94458 39059 ft 551 kts 60°
2026-05-01 13:44 23.49900 -48.86933 39059 ft 551 kts 60°
2026-05-01 13:45 23.53201 -48.79358 39060 ft 551 kts 60°
2026-05-01 13:45 23.56485 -48.71808 39072 ft 551 kts 60°
2026-05-01 13:46 23.59759 -48.64268 39053 ft 550 kts 60°
2026-05-01 13:46 23.63016 -48.56756 39059 ft 550 kts 60°
2026-05-01 13:47 23.66282 -48.49212 39059 ft 550 kts 60°
2026-05-01 13:47 23.69542 -48.41669 39070 ft 550 kts 60°
2026-05-01 13:48 23.72789 -48.34143 39059 ft 549 kts 60°
2026-05-01 13:48 23.76040 -48.26595 39059 ft 549 kts 60°
2026-05-01 13:49 23.79281 -48.19061 39056 ft 549 kts 61°
2026-05-01 13:49 23.82537 -48.11479 39061 ft 550 kts 61°
2026-05-01 13:50 23.85772 -48.03931 39056 ft 550 kts 61°
2026-05-01 13:50 23.89009 -47.96369 39053 ft 550 kts 61°
2026-05-01 13:51 23.92253 -47.88776 39053 ft 550 kts 61°
2026-05-01 13:51 23.95481 -47.81208 39053 ft 550 kts 61°
2026-05-01 13:52 23.98700 -47.73648 39055 ft 550 kts 61°
2026-05-01 13:52 24.01945 -47.66016 39053 ft 550 kts 61°
2026-05-01 13:53 24.05145 -47.58477 39045 ft 550 kts 62°
2026-05-01 13:53 24.09977 -47.47070 39068 ft 550 kts 62°
2026-05-01 13:54 24.13179 -47.39492 39053 ft 550 kts 62°
2026-05-01 13:54 24.16388 -47.31889 39053 ft 550 kts 62°
2026-05-01 13:55 24.19597 -47.24271 39051 ft 550 kts 62°
2026-05-01 13:55 24.22794 -47.16670 39063 ft 550 kts 62°
2026-05-01 13:56 24.25975 -47.09094 39053 ft 550 kts 62°
2026-05-01 13:56 24.29160 -47.01494 39050 ft 550 kts 62°
2026-05-01 13:57 24.31827 -46.95122 39049 ft 550 kts 62°
2026-05-01 13:57 24.35546 -46.86221 39061 ft 551 kts 62°
2026-05-01 13:58 24.38719 -46.78610 39043 ft 549 kts 62°
2026-05-01 13:58 24.41886 -46.71001 39049 ft 549 kts 62°
2026-05-01 13:59 24.45064 -46.63356 39048 ft 549 kts 62°
2026-05-01 13:59 24.48236 -46.55711 39057 ft 549 kts 62°
2026-05-01 14:00 24.51389 -46.48095 39048 ft 549 kts 62°
2026-05-01 14:00 24.54556 -46.40438 39047 ft 549 kts 62°
2026-05-01 14:01 24.57684 -46.32859 39038 ft 549 kts 62°
2026-05-01 14:01 24.60858 -46.25158 39042 ft 549 kts 62°
2026-05-01 14:02 24.63984 -46.17556 39043 ft 548 kts 62°
2026-05-01 14:02 24.67123 -46.09913 39048 ft 549 kts 63°
2026-05-01 14:03 24.70275 -46.02226 39049 ft 549 kts 63°
2026-05-01 14:03 24.73403 -45.94579 39037 ft 549 kts 63°
2026-05-01 14:04 24.76538 -45.86903 39042 ft 549 kts 63°
2026-05-01 14:04 24.79131 -45.80544 39042 ft 549 kts 63°
2026-05-01 14:05 24.82762 -45.71627 39052 ft 550 kts 63°
2026-05-01 14:05 24.85896 -45.63913 39040 ft 549 kts 63°
2026-05-01 14:06 24.89007 -45.56244 39033 ft 548 kts 63°
2026-05-01 14:06 24.92124 -45.48547 39040 ft 549 kts 63°
2026-05-01 14:07 24.95219 -45.40889 39062 ft 549 kts 63°
2026-05-01 14:08 24.99868 -45.29360 39037 ft 549 kts 63°
2026-05-01 14:08 25.02974 -45.21642 39037 ft 549 kts 63°
2026-05-01 14:09 25.06053 -45.13977 39034 ft 549 kts 63°
2026-05-01 14:09 25.09135 -45.06290 39034 ft 549 kts 63°
2026-05-01 14:10 25.12231 -44.98554 39034 ft 549 kts 63°
2026-05-01 14:10 25.15312 -44.90843 39034 ft 549 kts 63°
2026-05-01 14:11 25.18377 -44.83156 39031 ft 549 kts 63°
2026-05-01 14:11 25.22989 -44.71567 39031 ft 549 kts 63°
2026-05-01 14:12 25.26080 -44.63782 39032 ft 549 kts 63°
2026-05-01 14:12 25.29122 -44.56105 39032 ft 549 kts 63°
2026-05-01 14:13 25.31684 -44.49628 39031 ft 549 kts 64°
2026-05-01 14:13 25.35238 -44.40629 39030 ft 549 kts 64°
2026-05-01 14:14 25.38296 -44.32869 39028 ft 549 kts 64°
2026-05-01 14:14 25.41336 -44.25142 39029 ft 550 kts 64°
2026-05-01 14:15 25.44383 -44.17382 39029 ft 550 kts 64°
2026-05-01 14:15 25.47428 -44.09614 39028 ft 550 kts 64°
2026-05-01 14:16 25.49956 -44.03152 39026 ft 550 kts 64°
2026-05-01 14:16 25.52985 -43.95398 39028 ft 549 kts 64°
2026-05-01 14:17 25.56026 -43.87597 39028 ft 549 kts 64°
2026-05-01 14:17 25.59053 -43.79819 39026 ft 549 kts 64°
2026-05-01 14:18 25.62062 -43.72075 39026 ft 549 kts 64°
2026-05-01 14:18 25.65066 -43.64326 39029 ft 549 kts 64°
2026-05-01 14:19 25.68082 -43.56534 39026 ft 549 kts 64°
2026-05-01 14:19 25.71085 -43.48760 39026 ft 549 kts 64°
2026-05-01 14:20 25.75593 -43.37060 39024 ft 550 kts 64°
2026-05-01 14:21 25.78596 -43.29250 39023 ft 550 kts 64°
2026-05-01 14:21 25.81583 -43.21466 39023 ft 550 kts 64°
2026-05-01 14:22 25.86075 -43.09731 39023 ft 550 kts 64°
2026-05-01 14:22 25.89066 -43.01901 39026 ft 550 kts 64°
2026-05-01 14:23 25.92042 -42.94093 39023 ft 550 kts 64°
2026-05-01 14:23 25.95007 -42.86298 39022 ft 550 kts 64°
2026-05-01 14:24 25.97979 -42.78472 39026 ft 550 kts 64°
2026-05-01 14:24 26.00941 -42.70657 39024 ft 550 kts 64°
2026-05-01 14:25 26.03917 -42.62790 39020 ft 550 kts 64°
2026-05-01 14:25 26.06886 -42.54925 39025 ft 550 kts 64°
2026-05-01 14:26 26.11306 -42.43189 39019 ft 550 kts 64°
2026-05-01 14:27 26.14275 -42.35285 39019 ft 550 kts 64°
2026-05-01 14:27 26.17211 -42.27456 39018 ft 550 kts 64°
2026-05-01 14:28 26.21622 -42.15663 39026 ft 550 kts 65°
2026-05-01 14:28 26.24553 -42.07808 39022 ft 550 kts 65°
2026-05-01 14:29 26.27502 -41.99888 39016 ft 550 kts 65°
2026-05-01 14:30 26.33349 -41.84141 39023 ft 550 kts 65°
2026-05-01 14:31 26.37715 -41.72344 39018 ft 550 kts 65°
2026-05-01 14:31 26.40619 -41.64475 39013 ft 550 kts 65°
2026-05-01 14:32 26.43528 -41.56577 39019 ft 550 kts 65°
2026-05-01 14:32 26.46430 -41.48685 39015 ft 550 kts 65°
2026-05-01 14:33 26.49330 -41.40780 39019 ft 550 kts 65°
2026-05-01 14:33 26.52226 -41.32873 39024 ft 550 kts 65°
2026-05-01 14:34 26.55119 -41.24956 39021 ft 550 kts 65°
2026-05-01 14:34 26.57993 -41.17074 39014 ft 550 kts 65°
2026-05-01 14:35 26.60880 -41.09141 39016 ft 549 kts 65°
2026-05-01 14:35 26.63757 -41.01223 39015 ft 550 kts 65°
2026-05-01 14:36 26.66617 -40.93332 39014 ft 550 kts 65°
2026-05-01 14:36 26.69478 -40.85424 39012 ft 550 kts 65°
2026-05-01 14:37 26.72346 -40.77479 39013 ft 550 kts 65°
2026-05-01 14:37 26.75207 -40.69538 39017 ft 550 kts 66°
2026-05-01 14:38 26.78056 -40.61613 39016 ft 550 kts 66°
2026-05-01 14:38 26.80888 -40.53720 39012 ft 550 kts 66°
2026-05-01 14:39 26.83747 -40.45738 39016 ft 550 kts 66°
2026-05-01 14:39 26.86582 -40.37804 39015 ft 550 kts 66°
2026-05-01 14:40 26.89413 -40.29863 39015 ft 550 kts 66°
2026-05-01 14:40 26.92249 -40.21894 39016 ft 550 kts 66°
2026-05-01 14:41 26.95070 -40.13950 39012 ft 550 kts 66°
2026-05-01 14:41 26.97899 -40.05968 39012 ft 550 kts 66°
2026-05-01 14:42 27.01087 -39.98242 39018 ft 546 kts 57°
2026-05-01 14:42 27.05027 -39.90968 39012 ft 545 kts 54°
2026-05-01 14:43 27.09083 -39.83777 39012 ft 545 kts 54°
2026-05-01 14:43 27.13143 -39.76586 39032 ft 544 kts 54°
2026-05-01 14:44 27.17154 -39.69435 39012 ft 543 kts 55°
2026-05-01 14:44 27.23183 -39.58635 39011 ft 543 kts 55°
2026-05-01 14:45 27.29191 -39.47841 39008 ft 543 kts 55°
2026-05-01 14:46 27.33181 -39.40659 39010 ft 543 kts 55°
2026-05-01 14:46 27.39181 -39.29839 39008 ft 543 kts 55°
2026-05-01 14:47 27.43172 -39.22627 39008 ft 543 kts 55°
2026-05-01 14:48 27.49139 -39.11824 39011 ft 543 kts 55°
2026-05-01 14:48 27.55113 -39.00978 39011 ft 543 kts 55°
2026-05-01 14:49 27.63072 -38.86487 39008 ft 543 kts 55°
2026-05-01 14:50 27.70990 -38.72022 39008 ft 543 kts 56°
2026-05-01 14:51 27.76934 -38.61130 39005 ft 542 kts 55°
2026-05-01 14:52 27.82865 -38.50238 39005 ft 542 kts 56°
2026-05-01 14:53 27.88792 -38.39323 39004 ft 542 kts 56°
2026-05-01 14:53 27.92709 -38.32096 39002 ft 542 kts 56°
2026-05-01 14:54 27.96640 -38.24829 39002 ft 542 kts 56°
2026-05-01 14:54 28.00589 -38.17518 39006 ft 543 kts 56°
2026-05-01 14:55 28.04528 -38.10212 38999 ft 543 kts 56°
2026-05-01 14:55 28.08427 -38.02966 39001 ft 543 kts 56°
2026-05-01 14:56 28.12353 -37.95661 39002 ft 543 kts 56°
2026-05-01 14:56 28.16278 -37.88342 38999 ft 543 kts 56°
2026-05-01 14:57 28.20198 -37.81021 38998 ft 543 kts 56°
2026-05-01 14:57 28.25618 -37.70878 39004 ft 543 kts 56°
2026-05-01 14:58 28.29556 -37.63494 39001 ft 543 kts 56°
2026-05-01 14:58 28.33452 -37.56174 39003 ft 543 kts 56°
2026-05-01 14:59 28.37357 -37.48825 39000 ft 543 kts 56°
2026-05-01 14:59 28.41257 -37.41475 39000 ft 543 kts 56°
2026-05-01 15:00 28.47079 -37.30475 39001 ft 544 kts 56°
2026-05-01 15:01 28.50977 -37.23096 39004 ft 543 kts 56°
2026-05-01 15:01 28.54857 -37.15735 38991 ft 543 kts 56°
2026-05-01 15:02 28.58737 -37.08363 38994 ft 543 kts 56°
2026-05-01 15:02 28.62609 -37.00993 38994 ft 543 kts 56°
2026-05-01 15:03 28.65827 -36.94856 38991 ft 543 kts 56°
2026-05-01 15:03 28.69694 -36.87472 38993 ft 543 kts 56°
2026-05-01 15:04 28.73549 -36.80097 38995 ft 543 kts 56°
2026-05-01 15:04 28.77438 -36.72645 38994 ft 543 kts 57°
2026-05-01 15:05 28.81276 -36.65277 38993 ft 543 kts 57°
2026-05-01 15:05 28.85112 -36.57898 38989 ft 543 kts 57°
2026-05-01 15:06 28.88991 -36.50424 38988 ft 543 kts 57°
2026-05-01 15:06 28.92831 -36.43011 38994 ft 543 kts 57°
2026-05-01 15:07 28.96678 -36.35575 38995 ft 545 kts 57°
2026-05-01 15:07 29.00538 -36.28096 38993 ft 545 kts 57°
2026-05-01 15:08 29.04345 -36.20708 38988 ft 544 kts 57°
2026-05-01 15:08 29.08211 -36.13192 38988 ft 544 kts 57°
2026-05-01 15:09 29.12043 -36.05728 38988 ft 544 kts 57°
2026-05-01 15:09 29.15870 -35.98261 38990 ft 545 kts 57°
2026-05-01 15:10 29.19683 -35.90807 38988 ft 544 kts 57°
2026-05-01 15:10 29.25418 -35.79569 38986 ft 545 kts 57°
2026-05-01 15:11 29.31139 -35.68328 38985 ft 544 kts 57°
2026-05-01 15:12 29.34917 -35.60888 38984 ft 544 kts 57°
2026-05-01 15:12 29.40616 -35.49639 38992 ft 544 kts 57°
2026-05-01 15:14 29.50106 -35.30837 38997 ft 544 kts 57°
2026-05-01 15:14 29.55791 -35.19532 38980 ft 545 kts 58°
2026-05-01 15:15 29.63348 -35.04454 38982 ft 545 kts 58°
2026-05-01 15:16 29.70907 -34.89316 38982 ft 545 kts 58°
2026-05-01 15:18 29.80323 -34.70377 38980 ft 545 kts 58°
2026-05-01 15:19 29.87813 -34.55248 38979 ft 545 kts 58°
2026-05-01 15:19 29.93443 -34.43838 38979 ft 544 kts 58°
2026-05-01 15:20 29.99052 -34.32439 38977 ft 544 kts 58°
2026-05-01 15:21 30.02758 -34.24888 38980 ft 544 kts 58°
2026-05-01 15:21 30.06488 -34.17275 38981 ft 544 kts 58°
2026-05-01 15:22 30.12086 -34.05821 38981 ft 546 kts 58°
2026-05-01 15:22 30.15820 -33.98162 38978 ft 546 kts 58°
2026-05-01 15:23 30.19521 -33.90555 38978 ft 547 kts 58°
2026-05-01 15:23 30.23249 -33.82880 38975 ft 546 kts 58°
2026-05-01 15:24 30.26968 -33.75207 38977 ft 546 kts 59°
2026-05-01 15:24 30.30681 -33.67531 38985 ft 547 kts 58°
2026-05-01 15:25 30.34396 -33.59836 38980 ft 548 kts 59°
2026-05-01 15:25 30.38112 -33.52124 38979 ft 548 kts 59°
2026-05-01 15:26 30.41796 -33.44463 38977 ft 548 kts 59°
2026-05-01 15:26 30.45497 -33.36750 38975 ft 548 kts 59°
2026-05-01 15:27 30.49200 -33.29020 38974 ft 548 kts 59°
2026-05-01 15:28 30.54744 -33.17417 38970 ft 548 kts 59°
2026-05-01 15:28 30.58415 -33.09713 38973 ft 548 kts 59°
2026-05-01 15:29 30.63946 -32.98078 38974 ft 548 kts 59°
2026-05-01 15:30 30.71275 -32.82610 38978 ft 549 kts 59°
2026-05-01 15:31 30.82281 -32.59260 38977 ft 549 kts 59°
2026-05-01 15:32 30.89589 -32.43675 38981 ft 548 kts 59°
2026-05-01 15:34 31.00503 -32.20283 38981 ft 548 kts 59°